Volver al catálogo

FENGYUN 1C DEB

ActivoSSO
NORAD 29750·DEBRIS·🇨🇳 China

Lanzado May 10, 1999 desde Taiyuan Satellite Launch Center

Loading…

Próximos Pases (próximas 24 horas)

TLE

ActualizadoSource: Space-Track

Época: Sep 13, 2026, 00:16 UTC

1 29750U 99025AQ  26256.01156358  .00000290  00000-0  18812-3 0  9992
2 29750  98.7296 282.2398 0034936 243.6101 180.0859 14.09858103  9269

Sigue FENGYUN 1C DEB en tiempo real con AllMySat

Download on the App Store